RH
31 27 24 19 22 23 23 23 24 28 28 27 25 23 25 20 18 16 15 12 18 17 16 15 6 5 7 9 36 78 45 44 27 53 22 52 57 42 21 27 25 25 33 28 13
30 29 30 28 23 21 22 23 23 23 23 23 25 23 22 24 20 20 18 16 12 16 16 18 12 6 7 9 15 38 34 90 42 34 22 30 21 20 16 15 11 9 9 11 11
23 27 30 28 30 29 28 22 23 23 24 25 25 25 22 21 22 21 19 18 17 12 17 16 18 8 11 24 9 12 21 62 18 56 96 68 14 78 94 64 16 11 9 11 10
22 24 23 28 30 28 30 30 31 28 26 24 27 25 26 21 21 20 19 18 18 16 13 18 17 12 10 36 6 8 11 12 13 38 89 82 20 90 100 87 16 12 11 12 12
16 16 18 21 24 29 29 27 30 32 33 31 27 25 26 25 21 20 19 18 17 18 16 13 18 18 8 33 13 8 8 9 8 10 18 37 17 32 100 89 90 34 9 11 10
26 27 23 16 16 22 26 29 28 26 30 31 31 28 23 25 22 20 20 20 18 17 19 16 14 19 16 9 37 31 43 16 10 9 9 9 10 12 12 16 36 11 10 10 9
30 24 25 26 21 16 18 21 25 24 24 25 29 29 28 24 22 22 20 21 20 18 17 20 16 17 19 16 13 9 11 26 33 10 8 9 9 9 8 8 8 8 9 10 10
37 37 29 22 26 25 21 20 17 20 20 24 25 26 30 25 28 26 22 21 21 20 17 18 20 17 18 18 20 15 10 9 6 6 6 7 10 11 11 10 9 8 8 8 8
34 33 28 28 26 24 24 24 21 20 18 17 24 24 24 19 27 29 29 23 21 21 20 18 18 20 17 18 19 23 17 11 10 10 9 9 9 9 10 10 11 11 9 8 8
30 28 29 29 26 29 30 26 22 23 22 20 18 18 22 18 21 26 28 32 30 22 21 21 20 18 19 18 17 18 21 19 12 11 12 13 13 13 14 13 12 12 12 12 12
18 21 22 24 26 24 24 25 26 22 22 22 22 19 17 21 20 17 23 27 30 31 23 21 20 20 17 19 19 15 18 18 21 19 18 19 14 14 15 16 16 15 14 17 19
10 11 14 17 18 22 22 22 20 22 21 18 17 20 22 18 17 16 17 21 25 28 29 23 21 20 19 18 19 20 16 19 17 21 24 25 26 34 30 23 24 23 24 26 27
8 8 9 10 12 16 17 19 18 18 24 18 21 18 23 21 18 17 18 16 19 20 26 28 24 23 21 19 17 18 20 15 21 18 18 22 27 64 41 59 40 32 29 30 32
11 8 8 8 8 10 12 16 16 17 25 17 22 23 16 24 21 19 19 20 17 18 20 22 23 25 23 21 17 16 18 20 16 16 23 20 20 28 56 37 81 74 38 45 70
17 13 12 8 7 8 9 11 15 16 18 19 21 21 21 19 26 22 19 18 22 22 17 24 20 22 22 21 21 18 15 17 20 17 14 16 24 22 24 29 33 28 34 42 100
22 18 16 13 9 7 8 9 10 14 14 16 18 22 24 26 30 26 24 24 20 18 20 18 15 19 21 20 22 23 21 16 16 21 18 15 13 13 18 25 32 33 34 36 35
32 25 23 15 12 10 7 8 8 11 13 14 14 16 19 24 25 27 24 23 27 26 24 24 22 20 22 21 22 23 24 23 18 16 19 19 17 14 13 13 14 16 17 21 25
49 39 45 19 17 16 10 7 8 11 11 13 13 12 12 17 22 27 27 23 23 27 27 28 24 24 25 24 23 24 23 23 22 17 15 17 20 20 16 14 14 13 12 11 12
56 54 47 24 23 19 16 11 9 11 11 11 12 12 10 11 16 20 24 26 25 29 31 32 31 29 25 24 22 23 21 23 23 21 20 15 16 18 20 19 17 16 16 15 15
61 81 59 34 28 21 21 18 15 11 10 10 10 11 11 10 11 15 22 25 24 25 31 34 35 30 29 26 25 23 24 22 23 23 24 20 16 14 16 18 20 21 20 20 22
76 83 61 58 40 30 22 23 19 14 9 9 11 11 12 11 10 11 14 21 24 26 30 34 34 32 28 25 28 28 27 28 29 23 22 23 22 17 13 13 14 16 16 16 16
100 100 90 58 42 34 28 30 19 18 10 9 11 12 13 13 12 11 12 15 19 22 25 28 33 32 29 30 30 28 24 22 25 25 26 24 27 22 18 15 14 12 13 12 12
100 84 83 73 59 42 40 36 26 17 13 9 10 13 15 14 12 12 12 12 13 18 22 22 23 30 30 26 25 23 22 23 25 26 28 32 29 25 24 20 18 16 17 20 21
100 98 80 83 82 57 48 43 36 17 15 12 11 12 15 14 13 13 13 12 12 13 16 20 19 20 26 28 27 29 28 27 28 28 31 27 24 23 21 21 26 28 25 26 36
100 100 77 75 96 59 49 50 39 20 16 15 14 13 12 14 13 14 14 13 12 12 12 14 14 16 18 22 24 25 25 24 23 24 25 27 22 22 23 26 27 28 29 39 44
58 90 61 75 76 68 49 51 35 25 17 16 16 13 14 14 13 14 14 14 13 12 12 12 12 12 13 14 15 17 18 18 16 17 18 20 18 22 31 33 27 25 26 43 42
58 64 59 59 71 68 52 43 43 32 20 15 19 16 14 15 14 14 14 15 15 13 13 13 12 12 11 11 11 11 10 9 9 10 13 16 24 41 34 22 20 24 30 30 37
Wind_Speed
23 21 20 18 16 14 11 9 7 5 8 9 11 13 15 19 23 25 27 29 31 32 32 34 31 24 19 14 2 5 5 11 7 7 4 7 10 11 10 12 19 22 26 28 23
29 26 25 22 20 20 17 15 12 9 8 10 7 9 12 14 17 22 23 26 27 29 30 32 32 31 23 19 4 9 6 7 5 3 3 1 4 6 8 2 5 6 5 7 10
34 33 32 29 26 24 22 21 19 15 12 10 11 7 9 12 13 17 20 21 24 26 28 28 30 32 30 24 18 10 13 11 3 8 6 6 7 12 9 2 5 3 2 3 3
43 41 37 35 34 30 28 27 25 22 18 15 14 12 9 11 11 12 15 18 19 21 23 26 27 30 36 33 23 9 12 15 12 10 7 7 3 5 8 3 5 3 2 1 5
39 40 42 41 40 39 34 32 31 28 25 23 19 17 14 13 11 10 11 15 17 17 20 21 22 25 28 31 27 11 7 13 12 8 7 6 2 3 6 9 14 5 3 4 8
45 45 42 40 41 43 43 39 36 35 30 28 26 23 19 17 15 11 10 12 14 15 15 18 19 21 21 25 23 16 15 14 8 4 6 6 7 6 6 7 7 4 5 6 6
53 50 48 47 44 43 43 42 42 40 37 34 32 28 24 24 18 18 14 13 12 13 12 14 16 17 18 20 24 21 20 13 9 9 12 10 8 4 7 7 8 8 8 6 5
63 60 56 53 48 48 46 45 43 43 41 40 37 35 31 29 27 22 20 18 13 12 11 11 11 14 15 15 18 15 16 19 15 15 15 15 16 13 13 15 14 12 12 12 10
70 68 67 62 57 52 48 48 46 44 43 43 44 42 38 38 31 28 26 25 21 14 12 9 10 9 12 12 11 10 12 13 15 20 22 23 22 20 18 18 19 17 16 17 18
76 75 73 71 69 66 62 58 51 50 48 46 46 47 46 42 36 36 32 31 29 21 18 13 10 9 7 9 10 8 8 8 10 13 15 15 16 15 16 14 14 15 15 14 13
83 82 78 77 76 76 71 66 60 57 55 54 51 49 47 48 44 41 39 36 31 29 24 20 17 13 8 6 8 8 7 2 5 6 8 8 7 7 9 11 11 10 8 11 13
87 88 87 85 83 81 78 75 70 64 63 59 57 54 51 52 48 45 44 42 38 37 28 28 24 20 14 11 8 8 9 8 4 2 2 3 2 4 9 8 8 8 8 11 11
87 90 90 90 87 88 82 79 77 70 68 66 64 61 58 53 54 50 47 46 45 41 36 35 30 27 23 19 14 11 8 8 11 8 6 4 5 6 6 5 5 4 4 5 7
69 83 89 93 91 90 87 89 82 77 73 74 69 70 61 63 57 55 52 49 45 43 43 42 34 32 29 25 21 17 13 11 11 10 8 10 6 6 5 4 10 7 5 6 9
55 59 74 87 91 91 93 90 86 79 77 78 74 72 69 65 66 61 58 54 50 49 44 46 42 39 35 30 26 24 20 16 15 15 11 8 13 11 7 9 11 12 11 13 13
57 57 58 69 82 88 92 95 88 83 82 77 78 77 73 73 69 68 64 59 58 53 46 48 46 42 41 35 32 32 26 24 19 18 20 13 14 12 13 13 14 15 14 17 15
65 57 61 58 65 77 88 93 92 81 86 83 83 82 78 76 74 72 69 64 59 53 46 49 44 44 46 43 40 36 33 32 26 25 24 19 18 18 15 16 16 17 18 20 22
67 63 63 58 44 58 76 84 88 87 90 89 88 83 79 77 77 75 73 68 64 60 57 55 50 46 48 47 47 45 42 35 33 32 29 23 23 24 20 22 21 24 25 24 24
63 64 67 57 50 46 62 76 82 91 97 93 89 84 82 80 80 78 76 73 70 64 60 56 51 52 52 51 49 48 43 43 41 37 33 33 30 27 26 28 30 29 32 32 35
65 65 66 66 60 46 45 55 70 91 99 95 91 86 84 81 80 78 78 75 73 69 66 63 61 62 59 58 53 49 48 45 43 42 40 39 34 33 32 33 35 39 36 31 36
61 66 69 68 63 47 40 43 63 82 99 96 92 89 87 86 83 82 79 79 78 75 72 69 66 65 66 58 56 54 51 49 51 46 43 44 41 39 37 40 39 41 40 37 38
58 58 66 67 63 57 44 42 56 75 91 96 94 89 89 89 86 83 80 76 81 80 75 74 72 72 63 63 61 61 58 53 53 49 47 47 46 44 43 44 42 42 44 46 43
60 63 61 61 61 58 51 49 51 67 81 94 95 91 91 91 89 83 81 78 81 83 76 79 74 76 72 68 65 64 60 57 56 54 51 54 49 51 47 47 46 47 48 49 49
62 65 60 57 61 62 55 53 48 56 76 88 94 98 98 92 90 86 82 80 79 77 77 85 77 78 75 70 70 71 68 63 63 60 63 59 56 52 51 49 49 51 49 50 48
66 65 66 62 62 63 56 54 50 52 71 88 96 102 100 94 93 89 85 83 78 77 79 80 76 77 75 76 77 74 72 71 67 64 67 67 62 56 55 54 51 50 49 53 54
64 64 66 66 65 63 60 56 53 53 70 86 95 99 99 97 96 91 88 83 82 78 78 78 76 74 73 75 77 74 71 71 71 72 70 70 64 62 60 61 59 54 49 57 58
75 75 72 69 69 65 69 62 56 54 59 81 86 98 99 98 96 92 88 85 84 83 81 78 74 75 74 73 73 72 68 71 72 71 73 69 65 68 65 67 63 60 60 62 62
Wind_Direction
241 244 238 238 245 256 260 262 273 292 320 341 2 2 13 16 21 24 30 37 31 32 35 33 36 46 39 30 137 209 152 260 230 143 176 201 230 230 197 231 247 249 255 260 266
241 241 246 243 240 246 250 256 259 267 282 304 332 353 355 4 10 17 23 32 32 30 28 31 29 32 37 38 103 191 200 223 198 73 67 91 159 101 90 12 267 249 258 270 272
241 243 244 247 244 246 250 253 254 259 265 277 293 316 333 346 354 5 8 26 30 29 26 26 27 28 36 35 31 129 185 193 178 123 114 133 113 81 68 334 245 211 208 186 234
246 244 244 244 248 246 245 252 258 260 259 261 269 282 293 315 333 353 358 8 25 30 30 25 23 26 34 37 35 80 186 219 207 158 155 112 119 112 96 105 186 152 190 217 280
249 250 251 247 244 248 249 249 251 255 258 257 262 265 274 285 299 325 342 347 3 20 28 29 27 27 37 61 63 69 166 205 198 191 174 189 187 121 190 247 261 321 283 310 294
247 248 247 247 249 247 245 245 249 250 250 257 256 258 261 267 276 288 308 326 339 357 17 27 25 27 26 49 71 48 71 76 105 186 221 235 244 229 238 259 255 307 334 332 310
249 246 245 245 243 245 247 246 246 248 252 250 254 255 254 257 266 276 283 296 313 330 353 13 23 24 17 36 49 42 57 70 77 89 93 97 93 126 146 118 83 78 79 72 59
250 249 247 246 245 243 243 245 245 246 248 250 251 253 255 253 255 263 273 280 285 302 317 343 8 17 22 19 47 37 54 74 88 90 91 92 93 88 91 90 84 74 77 79 77
250 251 250 248 245 242 244 245 245 246 248 250 250 250 250 254 253 259 261 269 272 276 283 302 327 355 16 5 21 33 45 57 75 83 84 84 83 87 86 86 86 81 72 74 76
251 251 249 250 248 246 246 247 246 248 248 247 248 248 248 251 252 254 255 260 268 269 268 270 286 308 335 358 354 359 29 52 61 72 75 82 92 92 89 84 88 87 82 67 54
250 248 248 248 248 249 247 247 244 244 245 245 247 249 250 250 247 247 249 254 260 265 262 263 265 274 286 307 328 334 326 3 72 74 80 86 76 74 86 79 75 77 76 56 54
249 250 248 247 246 247 248 248 244 242 243 244 247 246 245 248 250 247 249 252 252 254 258 261 261 269 269 272 279 299 311 306 294 343 353 57 97 148 81 79 77 79 66 64 52
253 250 248 247 245 244 245 245 246 242 242 240 242 245 245 244 246 246 245 247 248 251 252 254 257 263 265 264 256 259 270 282 293 290 287 301 329 341 191 67 114 109 70 52 34
259 255 251 247 246 244 242 241 242 243 240 242 240 242 241 242 242 244 245 244 247 249 248 252 253 258 259 260 254 251 246 271 279 271 281 289 284 291 283 283 234 276 304 327 349
272 259 253 249 246 243 240 240 237 239 239 241 238 242 241 241 241 242 240 242 243 244 244 247 247 252 253 255 254 252 245 236 247 271 271 261 275 269 268 280 290 286 309 312 285
280 275 268 251 249 243 240 237 236 235 236 236 239 238 239 239 240 242 243 243 244 245 243 245 248 250 256 254 252 252 250 248 239 247 253 262 276 268 278 278 277 289 301 295 296
281 279 274 256 248 246 241 235 234 234 235 233 234 235 234 236 238 239 239 239 242 245 247 249 249 247 251 253 255 257 252 251 246 244 245 242 258 266 268 270 282 288 282 283 292
278 280 274 271 262 253 243 237 232 231 233 232 231 233 233 236 237 237 238 239 241 240 238 241 243 244 247 248 249 250 252 253 252 249 247 245 253 256 270 279 284 283 284 287 293
276 273 274 276 269 259 243 238 230 228 230 230 230 230 232 233 235 237 237 237 238 240 242 243 242 244 244 246 249 250 253 253 254 257 256 253 252 260 264 269 273 276 282 289 296
277 269 271 274 274 269 248 236 230 226 228 227 227 228 231 231 232 235 236 237 238 239 239 239 239 241 242 243 245 249 251 254 255 254 254 258 256 254 257 262 267 273 274 281 288
278 271 270 272 273 274 258 242 231 225 225 226 226 225 226 230 229 231 232 234 236 237 237 239 240 242 244 248 250 252 253 253 253 254 253 254 257 255 256 261 263 268 273 274 275
285 280 273 271 273 272 264 252 235 226 224 223 225 225 225 228 230 229 230 231 234 234 238 240 240 243 245 244 246 247 249 252 259 259 258 257 255 254 254 254 260 266 273 274 274
281 278 271 272 273 265 261 260 241 230 223 222 223 224 226 226 228 228 228 229 233 237 233 237 240 242 242 244 247 253 254 255 257 260 261 259 257 258 257 258 258 260 265 272 275
273 274 268 266 264 263 260 257 245 231 222 221 222 223 224 224 225 228 228 229 230 234 237 239 237 241 244 245 246 249 251 252 255 257 258 259 260 262 264 264 263 265 269 272 279
272 268 262 258 259 261 257 251 246 234 219 219 218 222 224 222 224 225 227 229 229 232 234 236 238 242 243 245 246 249 253 255 257 257 260 264 264 266 268 269 268 268 270 273 273
263 259 259 254 250 253 253 245 248 237 222 219 218 219 222 224 224 223 224 227 230 229 233 236 237 238 242 246 248 249 251 256 258 259 261 263 268 267 266 266 268 269 270 270 272
259 257 257 253 247 241 247 249 244 239 231 222 217 220 220 222 224 224 225 224 228 229 229 233 236 239 240 241 245 247 248 253 255 256 258 262 263 264 266 268 270 272 272 270 273